Regional Weather Roundup
Issued by NWS

Home | Current Version | Previous Version | Text Only | Print | Product List | Glossary Off
Versions: 1 2 3 4 5 6 7 8 9 10 11 12 13 14 15 16 17 18 19 20 21 22 23 24 25 26 27 28 29 30 31 32 33 34 35 36 37 38 39 40 41 42 43 44 45 46 47 48 49 50

000
ASUS43 KFSD 222010
RWRSD

WEATHER ROUNDUP FOR SOUTH DAKOTA
NATIONAL WEATHER SERVICE SIOUX FALLS SD
300 PM CDT FRI AUG 22 2014

NOTE: "FAIR" INDICATES FEW OR NO CLOUDS BELOW 12,000 FEET WITH NO
SIGNIFICANT WEATHER AND/OR OBSTRUCTIONS TO VISIBILITY.


SDZ001>005-009-010-012>017-222100-
NORTHWEST AND NORTH CENTRAL SOUTH DAKOTA

CITY           SKY/WX    TMP DP  RH WIND       PRES   REMARKS
BUFFALO          N/A     68  59  73 E8        30.01S
FAITH            N/A     69  63  81 NE12      30.05F
MOBRIDGE       MOSUNNY   74  66  76 NE7       30.00F
$$

SDZ012>016-024>037-041>051-057-063-072>074-222100-
SOUTHWEST AND SOUTH CENTRAL SOUTH DAKOTA

CITY           SKY/WX    TMP DP  RH WIND       PRES   REMARKS
RAPID CTY ARPT PTSUNNY   74  61  63 E9        30.05S
PIERRE         CLOUDY    77  66  68 E13       29.98F
CUSTER         PTSUNNY   73  53  49 S6        30.13F
ELLSWORTH AFB  PTSUNNY   73  61  67 VRB6      30.05S
PHILIP         PTSUNNY   80  63  55 E9G17     30.00F
PINE RIDGE     CLOUDY    73  61  65 CALM      30.05S
WINNER         MOCLDY    83  71  67 E13       29.99F
$$

SDZ004>011-016>023-039-040-222100-
NORTHEAST SOUTH DAKOTA

CITY           SKY/WX    TMP DP  RH WIND       PRES   REMARKS
ABERDEEN       CLOUDY    74  66  76 NE9       30.00F
WATERTOWN      MOSUNNY   81  68  64 E9        30.00S
SISSETON         N/A     79  70  74 VRB6      29.99S
$$

SDZ017-020-022-023-036>040-048>070-222100-
SOUTHEAST SOUTH DAKOTA

CITY           SKY/WX    TMP DP  RH WIND       PRES   REMARKS
SIOUX FALLS    PTSUNNY   85  69  58 E9        29.97F
HURON          PTSUNNY   85  68  56 N6        29.96F
CHAMBERLAIN    CLOUDY    80  67  63 E5        29.98F
MITCHELL       CLOUDY    84  66  54 CALM      29.96F
YANKTON        MOSUNNY   82  70  65 E7        29.95S
$$

ABBREVIATIONS USED IN REMARKS
   TC - TEMPERATURE IN CELSIUS
  WCI - WIND CHILL INDEX
   HX - HEAT INDEX
  VSB - VISIBILITY




USA.gov is the U.S. government's official web portal to all federal, state and local government web resources and services.